Weather Roundup
Issued by NWS Chicago, IL

Home | Current Version | Previous Version | Text Only | Print | Product List | Glossary Off
Versions: 1 2 3 4 5 6 7 8 9 10 11 12 13 14 15 16 17 18 19 20 21 22 23 24 25 26 27 28 29 30 31 32 33 34 35 36 37 38 39 40 41 42 43 44 45 46 47 48 49 50

000
NZUS59 KLOT 222258
HRRLOT

CHICAGO AREA WEATHER ROUNDUP
NATIONAL WEATHER SERVICE CHICAGO/ROMEOVILLE IL
600 PM CDT TUE JUL 22 2014

NOTE: "FAIR" INDICATES FEW OR NO CLOUDS BELOW 12,000 FEET WITH NO
SIGNIFICANT WEATHER AND/OR OBSTRUCTIONS TO VISIBILITY.

* THESE STATIONS ARE NOT UNDER NWS QUALITY CONTROL. THEY ALSO MAY NOT
  REPORT WEATHER SUCH AS PRECIPITATION OR FOG.

ILZ005-006-012>014-019>023-230000-
NORTHEAST ILLINOIS

CITY           SKY/WX    TMP DP  RH WIND       PRES   REMARKS
OHARE          PTSUNNY   89  72  56 SW15G21   29.93F HX  96
MIDWAY         CLOUDY    88  75  65 SW16      29.95S HX  97
AURORA         MOSUNNY   88  74  63 SW10      29.95S HX  96
WAUKEGAN       SUNNY     86  74  67 SW10G17   29.92F HX  94
DUPAGE AIRPORT MOSUNNY   88  75  65 SW13      29.94F HX  97
WHEELING       PTSUNNY   90  74  59 SW10      29.94S HX  99
NORTHERLY IS     N/A     87  71  58 W17         N/A  HX  93
$$

WIZ051-052-058>065-066-070>072-230000-
SOUTHEAST WISCONSIN

CITY           SKY/WX    TMP DP  RH WIND       PRES   REMARKS
MILWAUKEE      PTSUNNY   87  74  64 SW14      29.90S HX  95
KENOSHA*       MOSUNNY   86  77  74 W7        29.93S HX  97
RACINE*        MOSUNNY   87  75  67 W10       29.93S HX  96
WAUKESHA       CLOUDY    82  75  78 SW10      29.93S HX  89
$$

INZ001>003-010>013-019-020-230000-
NORTHWEST INDIANA

CITY           SKY/WX    TMP DP  RH WIND       PRES   REMARKS
GARY*          MOSUNNY   86  72  62 S10G23    29.96F HX  92
MICHIGAN CITY* NOT AVBL
RENSSELAER*    NOT AVBL
$$

LMZ740>746-230000-
SOUTHERN LAKE MICHIGAN

STATION/POSITION TIME  SKY/WX   TEMP WIND        PRES    VSBY
                                AIR  DIR/SP/G
                 (UTC)          (F)  (DEG/KT/KT) (MB)    (MI)
HARRISON CRIB    2200            85  210/ 14/ 18   N/A
BURNHAM HARBOR   2200            88  210/  8/ 20   N/A
CALUMET HARBOR   2200            86  200/ 12/ 17 1013.0F
BURNS HARBOR     2200            85  220/ 15/ 20 1015.2R
MICHIGAN CITY    2200            84  180/ 16/ 20   N/A
$$

ABBREVIATIONS USED IN REMARKS
   TC - TEMPERATURE IN CELSIUS
  WCI - WIND CHILL INDEX
   HX - HEAT INDEX
  VSB - VISIBILITY
$$


USA.gov is the U.S. government's official web portal to all federal, state and local government web resources and services.